Time,TemperatureF,DewpointF,PressureIn,WindDirection,WindDirectionDegrees,WindSpeedMPH,WindSpeedGustMPH,Humidity,HourlyPrecipIn,Conditions,Clouds,dailyrainin,SoftwareType,DateUTC
2013-03-01 00:01:00,35.8,25.9,29.96,WNW,293,1.0,5.0,67,0.00,,FEW044,0.00,VWS V14.01,2013-03-01 05:01:00,
2013-03-01 00:03:00,35.6,26.1,29.96,WNW,293,0.0,5.0,68,0.00,,FEW044,0.00,VWS V14.01,2013-03-01 05:03:00,
2013-03-01 00:04:00,35.5,26.0,29.96,WNW,293,0.0,5.0,68,0.00,,FEW044,0.00,VWS V14.01,2013-03-01 05:04:00,
2013-03-01 00:05:00,35.5,26.0,29.96,WNW,293,0.0,5.0,68,0.00,,FEW044,0.00,VWS V14.01,2013-03-01 05:05:00,
2013-03-01 00:06:00,35.5,26.0,29.96,WNW,293,1.0,2.0,68,0.00,,FEW044,0.00,VWS V14.01,2013-03-01 05:06:00,
2013-03-01 00:12:00,35.3,26.2,29.96,WNW,293,0.0,2.0,69,0.00,,FEW044,0.00,VWS V14.01,2013-03-01 05:12:00,
2013-03-01 00:18:00,35.3,25.8,29.96,WNW,293,0.0,1.0,68,0.00,,FEW044,0.00,VWS V14.01,2013-03-01 05:18:00,
2013-03-01 00:24:00,35.6,26.1,29.95,WNW,300,0.0,3.0,68,0.00,,FEW044,0.00,VWS V14.01,2013-03-01 05:24:00,
2013-03-01 00:30:00,35.6,25.7,29.95,WNW,300,0.0,3.0,67,0.00,,FEW044,0.00,VWS V14.01,2013-03-01 05:30:00,
2013-03-01 00:35:00,35.5,26.0,29.95,WNW,300,0.0,3.0,68,0.00,,FEW044,0.00,VWS V14.01,2013-03-01 05:35:00,
2013-03-01 00:40:00,35.3,25.8,29.95,West,274,0.0,3.0,68,0.00,,FEW044,0.00,VWS V14.01,2013-03-01 05:40:00,
2013-03-01 00:46:00,35.5,26.0,29.95,West,277,0.0,0.0,68,0.00,,FEW044,0.00,VWS V14.01,2013-03-01 05:46:00,
2013-03-01 00:53:00,35.5,25.6,29.95,West,277,0.0,2.0,67,0.00,,FEW044,0.00,VWS V14.01,2013-03-01 05:53:00,
2013-03-01 00:59:00,35.3,25.8,29.95,West,276,1.0,1.0,68,0.00,,FEW044,0.00,VWS V14.01,2013-03-01 05:59:00,
2013-03-01 01:05:00,35.2,26.1,29.96,West,280,0.0,3.0,69,0.00,,FEW200,0.00,VWS V14.01,2013-03-01 06:05:00,
2013-03-01 01:11:00,34.9,25.8,29.96,West,280,0.0,2.0,69,0.00,,FEW200,0.00,VWS V14.01,2013-03-01 06:11:00,
2013-03-01 01:17:00,35.0,26.2,29.96,WNW,291,1.0,2.0,70,0.00,,FEW200,0.00,VWS V14.01,2013-03-01 06:17:00,
2013-03-01 01:23:00,35.3,26.2,29.97,WNW,302,2.0,3.0,69,0.00,,FEW200,0.00,VWS V14.01,2013-03-01 06:23:00,
2013-03-01 01:29:00,35.3,25.8,29.97,WNW,302,0.0,0.0,68,0.00,,FEW200,0.00,VWS V14.01,2013-03-01 06:29:00,
2013-03-01 01:35:00,35.2,26.1,29.96,WNW,302,0.0,2.0,69,0.00,,FEW200,0.00,VWS V14.01,2013-03-01 06:35:00,
2013-03-01 01:41:00,35.2,26.1,29.96,WNW,289,4.0,4.0,69,0.00,,FEW200,0.00,VWS V14.01,2013-03-01 06:41:00,
2013-03-01 01:47:00,35.2,26.1,29.96,WNW,289,0.0,0.0,69,0.00,,FEW200,0.00,VWS V14.01,2013-03-01 06:47:00,
2013-03-01 01:53:00,34.9,26.1,29.96,WNW,289,0.0,2.0,70,0.00,,FEW200,0.00,VWS V14.01,2013-03-01 06:53:00,
2013-03-01 01:59:00,34.7,25.9,29.96,WNW,289,0.0,1.0,70,0.00,,FEW200,0.00,VWS V14.01,2013-03-01 06:59:00,
2013-03-01 02:05:00,34.6,25.8,29.96,WNW,289,1.0,1.0,70,0.00,,FEW200,0.00,VWS V14.01,2013-03-01 07:05:00,
2013-03-01 02:11:00,34.6,25.8,29.96,WNW,289,0.0,2.0,70,0.00,,FEW200,0.00,VWS V14.01,2013-03-01 07:11:00,
2013-03-01 02:17:00,34.4,25.6,29.96,WNW,293,0.0,0.0,70,0.00,,FEW200,0.00,VWS V14.01,2013-03-01 07:17:00,
2013-03-01 02:23:00,34.4,25.6,29.95,WNW,293,0.0,1.0,70,0.00,,FEW200,0.00,VWS V14.01,2013-03-01 07:23:00,
2013-03-01 02:29:00,34.1,25.7,29.95,WNW,293,0.0,0.0,71,0.00,,FEW200,0.00,VWS V14.01,2013-03-01 07:29:00,
2013-03-01 02:35:00,34.0,25.6,29.95,West,259,0.0,3.0,71,0.00,,FEW200,0.00,VWS V14.01,2013-03-01 07:35:00,
2013-03-01 02:41:00,34.0,25.9,29.95,West,259,0.0,0.0,72,0.00,,FEW200,0.00,VWS V14.01,2013-03-01 07:41:00,
2013-03-01 02:47:00,33.8,25.7,29.95,West,259,0.0,0.0,72,0.00,,FEW200,0.00,VWS V14.01,2013-03-01 07:47:00,
2013-03-01 02:53:00,33.7,25.6,29.95,West,259,0.0,0.0,72,0.00,,FEW200,0.00,VWS V14.01,2013-03-01 07:53:00,
2013-03-01 02:59:00,33.5,25.5,29.95,West,259,0.0,0.0,72,0.00,,FEW200,0.00,VWS V14.01,2013-03-01 07:59:00,
2013-03-01 03:05:00,33.4,25.4,29.94,West,259,0.0,0.0,72,0.00,,FEW200,0.00,VWS V14.01,2013-03-01 08:05:00,
2013-03-01 03:11:00,33.1,25.4,29.94,West,259,0.0,1.0,73,0.00,,FEW200,0.00,VWS V14.01,2013-03-01 08:11:00,
2013-03-01 03:17:00,33.1,25.4,29.94,West,259,0.0,0.0,73,0.00,,FEW200,0.00,VWS V14.01,2013-03-01 08:17:00,
2013-03-01 03:23:00,32.9,25.5,29.94,West,259,0.0,0.0,74,0.00,,FEW200,0.00,VWS V14.01,2013-03-01 08:23:00,
2013-03-01 03:29:00,32.8,25.4,29.94,West,259,0.0,1.0,74,0.00,,FEW200,0.00,VWS V14.01,2013-03-01 08:29:00,
2013-03-01 03:35:00,32.7,25.7,29.94,West,259,0.0,1.0,75,0.00,,FEW200,0.00,VWS V14.01,2013-03-01 08:35:00,
2013-03-01 03:42:00,32.7,25.7,29.94,West,259,0.0,0.0,75,0.00,,FEW200,0.00,VWS V14.01,2013-03-01 08:42:00,
2013-03-01 03:48:00,32.5,25.5,29.94,West,259,0.0,0.0,75,0.00,,FEW200,0.00,VWS V14.01,2013-03-01 08:48:00,
2013-03-01 03:54:00,32.4,25.4,29.95,West,259,0.0,0.0,75,0.00,,FEW200,0.00,VWS V14.01,2013-03-01 08:54:00,
2013-03-01 04:00:00,31.9,25.5,29.95,West,259,0.0,0.0,77,0.00,,FEW200,0.00,VWS V14.01,2013-03-01 09:00:00,
2013-03-01 04:05:00,31.6,25.2,29.95,West,259,0.0,0.0,77,0.00,,FEW048,0.00,VWS V14.01,2013-03-01 09:05:00,
2013-03-01 04:10:00,31.5,25.4,29.95,West,259,0.0,0.0,78,0.00,,FEW048,0.00,VWS V14.01,2013-03-01 09:10:00,
2013-03-01 04:15:00,31.2,25.5,29.95,West,259,0.0,0.0,79,0.00,,FEW048,0.00,VWS V14.01,2013-03-01 09:15:00,
2013-03-01 04:21:00,30.9,25.5,29.95,West,259,0.0,2.0,80,0.00,,FEW048,0.00,VWS V14.01,2013-03-01 09:21:00,
2013-03-01 04:27:00,31.0,25.9,29.95,West,259,0.0,0.0,81,0.00,,FEW048,0.00,VWS V14.01,2013-03-01 09:27:00,
2013-03-01 04:33:00,31.0,25.6,29.95,West,259,0.0,2.0,80,0.00,,FEW048,0.00,VWS V14.01,2013-03-01 09:33:00,
2013-03-01 04:39:00,31.0,25.9,29.96,West,259,0.0,1.0,81,0.00,,FEW048,0.00,VWS V14.01,2013-03-01 09:39:00,
2013-03-01 04:45:00,31.0,25.9,29.96,West,259,0.0,1.0,81,0.00,,FEW048,0.00,VWS V14.01,2013-03-01 09:45:00,
2013-03-01 04:51:00,30.7,25.6,29.96,West,259,0.0,1.0,81,0.00,,FEW048,0.00,VWS V14.01,2013-03-01 09:51:00,
2013-03-01 04:57:00,30.7,25.9,29.96,West,259,1.0,1.0,82,0.00,,FEW048,0.00,VWS V14.01,2013-03-01 09:57:00,
2013-03-01 05:03:00,30.6,25.8,29.96,West,259,1.0,2.0,82,0.00,,FEW048,0.00,VWS V14.01,2013-03-01 10:03:00,
2013-03-01 05:09:00,30.4,25.9,29.97,West,259,0.0,2.0,83,0.00,,FEW048,0.00,VWS V14.01,2013-03-01 10:09:00,
2013-03-01 05:15:00,30.7,26.5,29.97,West,259,0.0,2.0,84,0.00,,FEW048,0.00,VWS V14.01,2013-03-01 10:15:00,
2013-03-01 05:21:00,30.7,26.2,29.95,West,259,0.0,1.0,83,0.00,,FEW048,0.00,VWS V14.01,2013-03-01 10:21:00,
2013-03-01 05:27:00,30.3,26.1,29.95,West,259,0.0,2.0,84,0.00,,FEW048,0.00,VWS V14.01,2013-03-01 10:27:00,
2013-03-01 05:33:00,30.6,26.4,29.95,West,259,0.0,2.0,84,0.00,,FEW048,0.00,VWS V14.01,2013-03-01 10:33:00,
2013-03-01 05:39:00,30.6,26.4,29.97,West,259,2.0,3.0,84,0.00,,FEW048,0.00,VWS V14.01,2013-03-01 10:39:00,
2013-03-01 05:45:00,30.3,26.1,29.97,West,259,0.0,3.0,84,0.00,,FEW048,0.00,VWS V14.01,2013-03-01 10:45:00,
2013-03-01 05:51:00,30.4,26.4,29.97,West,259,0.0,0.0,85,0.00,,FEW048,0.00,VWS V14.01,2013-03-01 10:51:00,
2013-03-01 05:57:00,30.3,26.3,29.97,West,259,0.0,0.0,85,0.00,,FEW048,0.00,VWS V14.01,2013-03-01 10:57:00,
2013-03-01 06:04:00,30.0,26.0,29.97,West,259,0.0,2.0,85,0.00,,FEW200,0.00,VWS V14.01,2013-03-01 11:04:00,
2013-03-01 06:10:00,30.0,26.0,29.97,West,259,0.0,0.0,85,0.00,,FEW200,0.00,VWS V14.01,2013-03-01 11:10:00,
2013-03-01 06:15:00,29.8,25.9,29.97,West,259,0.0,1.0,85,0.00,,FEW200,0.00,VWS V14.01,2013-03-01 11:15:00,
2013-03-01 06:20:00,29.4,25.5,29.97,West,259,0.0,0.0,85,0.00,,FEW200,0.00,VWS V14.01,2013-03-01 11:20:00,
2013-03-01 06:26:00,29.5,26.1,29.97,West,259,0.0,0.0,87,0.00,,FEW200,0.00,VWS V14.01,2013-03-01 11:26:00,
2013-03-01 06:32:00,29.8,26.1,29.97,West,259,1.0,1.0,86,0.00,,FEW200,0.00,VWS V14.01,2013-03-01 11:32:00,
2013-03-01 06:38:00,29.7,26.0,29.98,West,259,0.0,1.0,86,0.00,,FEW200,0.00,VWS V14.01,2013-03-01 11:38:00,
2013-03-01 06:44:00,29.8,26.4,29.98,West,259,0.0,1.0,87,0.00,,FEW200,0.00,VWS V14.01,2013-03-01 11:44:00,
2013-03-01 06:50:00,30.1,26.4,29.98,West,259,0.0,0.0,86,0.00,,FEW200,0.00,VWS V14.01,2013-03-01 11:50:00,
2013-03-01 06:57:00,29.8,26.1,29.98,West,259,0.0,2.0,86,0.00,,FEW200,0.00,VWS V14.01,2013-03-01 11:57:00,
2013-03-01 07:03:00,29.7,26.0,29.98,West,259,0.0,2.0,86,0.00,,SCT200,0.00,VWS V14.01,2013-03-01 12:03:00,
2013-03-01 07:09:00,29.8,26.4,29.99,West,259,0.0,0.0,87,0.00,,SCT200,0.00,VWS V14.01,2013-03-01 12:09:00,
2013-03-01 07:15:00,29.8,26.4,29.99,West,259,0.0,1.0,87,0.00,,SCT200,0.00,VWS V14.01,2013-03-01 12:15:00,
2013-03-01 07:21:00,29.7,26.3,29.99,West,259,0.0,0.0,87,0.00,,SCT200,0.00,VWS V14.01,2013-03-01 12:21:00,
2013-03-01 07:27:00,29.8,26.4,29.99,West,259,0.0,0.0,87,0.00,,SCT200,0.00,VWS V14.01,2013-03-01 12:27:00,
2013-03-01 07:33:00,30.1,26.7,29.99,West,259,0.0,1.0,87,0.00,,SCT200,0.00,VWS V14.01,2013-03-01 12:33:00,
2013-03-01 07:39:00,30.6,27.2,29.99,West,259,0.0,0.0,87,0.00,,SCT200,0.00,VWS V14.01,2013-03-01 12:39:00,
2013-03-01 07:45:00,31.0,27.3,29.99,West,259,0.0,1.0,86,0.00,,SCT200,0.00,VWS V14.01,2013-03-01 12:45:00,
2013-03-01 07:51:00,31.6,27.6,29.99,West,259,0.0,2.0,85,0.00,,SCT200,0.00,VWS V14.01,2013-03-01 12:51:00,
2013-03-01 07:57:00,32.4,28.1,29.99,West,259,0.0,0.0,84,0.00,,SCT200,0.00,VWS V14.01,2013-03-01 12:57:00,
2013-03-01 08:03:00,32.9,28.0,29.99,West,261,0.0,2.0,82,0.00,,SCT200,0.00,VWS V14.01,2013-03-01 13:03:00,
2013-03-01 08:09:00,33.5,28.3,30.00,West,261,2.0,3.0,81,0.00,,SCT200,0.00,VWS V14.01,2013-03-01 13:09:00,
2013-03-01 08:15:00,34.0,28.5,30.00,West,261,0.0,3.0,80,0.00,,SCT200,0.00,VWS V14.01,2013-03-01 13:15:00,
2013-03-01 08:21:00,34.7,28.5,30.00,WNW,286,0.0,3.0,78,0.00,,SCT200,0.00,VWS V14.01,2013-03-01 13:21:00,
2013-03-01 08:27:00,35.5,28.4,30.00,WNW,286,0.0,3.0,75,0.00,,SCT200,0.00,VWS V14.01,2013-03-01 13:27:00,
2013-03-01 08:33:00,36.2,28.4,30.00,West,264,0.0,4.0,73,0.00,,SCT200,0.00,VWS V14.01,2013-03-01 13:33:00,
2013-03-01 08:39:00,36.8,28.6,30.00,West,264,0.0,3.0,72,0.00,,SCT200,0.00,VWS V14.01,2013-03-01 13:39:00,
2013-03-01 08:45:00,37.3,28.4,30.00,West,271,0.0,5.0,70,0.00,,SCT200,0.00,VWS V14.01,2013-03-01 13:45:00,
2013-03-01 08:51:00,37.9,28.6,30.00,West,266,2.0,5.0,69,0.00,,SCT200,0.00,VWS V14.01,2013-03-01 13:51:00,
2013-03-01 08:57:00,38.3,28.3,30.00,WNW,285,3.0,5.0,67,0.00,,SCT200,0.00,VWS V14.01,2013-03-01 13:57:00,
2013-03-01 09:03:00,38.9,28.5,30.00,NW,320,1.0,5.0,66,0.00,,SCT200,0.00,VWS V14.01,2013-03-01 14:03:00,
2013-03-01 09:09:00,39.5,28.7,30.00,NW,319,1.0,3.0,65,0.00,,SCT200,0.00,VWS V14.01,2013-03-01 14:09:00,
2013-03-01 09:15:00,40.1,28.5,30.00,West,276,5.0,6.0,63,0.00,,SCT200,0.00,VWS V14.01,2013-03-01 14:15:00,
2013-03-01 09:21:00,40.5,28.1,30.00,West,271,2.0,8.0,61,0.00,,SCT200,0.00,VWS V14.01,2013-03-01 14:21:00,
2013-03-01 09:27:00,41.1,28.3,30.00,WNW,285,0.0,6.0,60,0.00,,SCT200,0.00,VWS V14.01,2013-03-01 14:27:00,
2013-03-01 09:33:00,41.6,29.2,30.00,WNW,283,0.0,6.0,61,0.00,,SCT200,0.00,VWS V14.01,2013-03-01 14:33:00,
2013-03-01 09:39:00,42.3,28.6,30.00,NW,304,0.0,5.0,58,0.00,,SCT200,0.00,VWS V14.01,2013-03-01 14:39:00,
2013-03-01 09:45:00,43.1,28.9,30.00,West,280,3.0,5.0,57,0.00,,SCT200,0.00,VWS V14.01,2013-03-01 14:45:00,
2013-03-01 09:51:00,43.6,28.1,30.00,NW,316,0.0,5.0,54,0.00,,SCT200,0.00,VWS V14.01,2013-03-01 14:51:00,
2013-03-01 09:57:00,44.3,29.2,30.00,WNW,299,3.0,4.0,55,0.00,,SCT200,0.00,VWS V14.01,2013-03-01 14:57:00,
2013-03-01 10:03:00,44.9,28.8,30.00,WNW,282,0.0,5.0,53,0.00,,SCT200,0.00,VWS V14.01,2013-03-01 15:03:00,
2013-03-01 10:09:00,45.5,26.5,29.99,NW,307,1.0,7.0,47,0.00,,SCT200,0.00,VWS V14.01,2013-03-01 15:09:00,
2013-03-01 10:15:00,45.4,25.9,29.99,WNW,294,1.0,7.0,46,0.00,,SCT200,0.00,VWS V14.01,2013-03-01 15:15:00,
2013-03-01 10:21:00,45.8,25.7,29.99,WSW,257,0.0,7.0,45,0.00,,SCT200,0.00,VWS V14.01,2013-03-01 15:21:00,
2013-03-01 10:27:00,46.8,26.6,29.99,WNW,290,0.0,4.0,45,0.00,,SCT200,0.00,VWS V14.01,2013-03-01 15:27:00,
2013-03-01 10:33:00,46.5,25.2,29.99,NW,316,3.0,10.0,43,0.00,,SCT200,0.00,VWS V14.01,2013-03-01 15:33:00,
2013-03-01 10:39:00,46.0,24.2,29.99,NW,306,0.0,4.0,42,0.00,,SCT200,0.00,VWS V14.01,2013-03-01 15:39:00,
2013-03-01 10:45:00,46.5,24.1,29.99,North,353,0.0,4.0,41,0.00,,SCT200,0.00,VWS V14.01,2013-03-01 15:45:00,
2013-03-01 10:52:00,46.4,24.6,29.99,NW,308,0.0,4.0,42,0.00,,SCT200,0.00,VWS V14.01,2013-03-01 15:52:00,
2013-03-01 10:58:00,46.2,24.4,29.99,WNW,295,3.0,6.0,42,0.00,,SCT200,0.00,VWS V14.01,2013-03-01 15:58:00,
2013-03-01 11:04:00,46.1,24.3,29.99,NW,304,0.0,6.0,42,0.00,,SCT200,0.00,VWS V14.01,2013-03-01 16:04:00,
2013-03-01 11:10:00,46.1,24.3,29.98,West,281,0.0,5.0,42,0.00,,SCT200,0.00,VWS V14.01,2013-03-01 16:10:00,
2013-03-01 11:15:00,46.4,24.6,29.98,NW,309,3.0,9.0,42,0.00,,SCT200,0.00,VWS V14.01,2013-03-01 16:15:00,
2013-03-01 11:22:00,46.8,24.9,29.98,NNW,335,0.0,4.0,42,0.00,,SCT200,0.00,VWS V14.01,2013-03-01 16:22:00,
2013-03-01 11:28:00,47.0,24.5,29.98,WSW,250,3.0,6.0,41,0.00,,SCT200,0.00,VWS V14.01,2013-03-01 16:28:00,
2013-03-01 11:34:00,46.7,24.8,29.98,NNW,334,4.0,6.0,42,0.00,,SCT200,0.00,VWS V14.01,2013-03-01 16:34:00,
2013-03-01 11:40:00,46.5,25.2,29.99,WNW,293,5.0,5.0,43,0.00,,SCT200,0.00,VWS V14.01,2013-03-01 16:40:00,
2013-03-01 11:45:00,46.4,25.1,29.99,WNW,302,0.0,5.0,43,0.00,,SCT200,0.00,VWS V14.01,2013-03-01 16:45:00,
2013-03-01 11:50:00,46.1,24.3,29.98,NW,306,1.0,6.0,42,0.00,,SCT200,0.00,VWS V14.01,2013-03-01 16:50:00,
2013-03-01 11:56:00,46.1,24.9,29.98,West,262,2.0,4.0,43,0.00,,SCT200,0.00,VWS V14.01,2013-03-01 16:56:00,
2013-03-01 12:02:00,46.2,25.0,29.98,West,273,1.0,4.0,43,0.00,,BKN055,0.00,VWS V14.01,2013-03-01 17:02:00,
2013-03-01 12:08:00,46.4,25.7,29.98,WNW,282,3.0,3.0,44,0.00,,BKN055,0.00,VWS V14.01,2013-03-01 17:08:00,
2013-03-01 12:15:00,46.1,24.9,29.98,NNW,328,1.0,6.0,43,0.00,,BKN055,0.00,VWS V14.01,2013-03-01 17:15:00,
2013-03-01 12:21:00,46.2,25.0,29.98,NNW,338,3.0,5.0,43,0.00,,BKN055,0.00,VWS V14.01,2013-03-01 17:21:00,
2013-03-01 12:27:00,45.8,25.7,29.98,NNW,334,2.0,5.0,45,0.00,,BKN055,0.00,VWS V14.01,2013-03-01 17:27:00,
2013-03-01 12:33:00,45.7,25.0,29.98,WNW,295,3.0,6.0,44,0.00,,BKN055,0.00,VWS V14.01,2013-03-01 17:33:00,
2013-03-01 12:39:00,45.8,25.7,29.97,NW,315,3.0,5.0,45,0.00,,BKN055,0.00,VWS V14.01,2013-03-01 17:39:00,
2013-03-01 12:45:00,45.8,25.1,29.97,NNW,346,3.0,9.0,44,0.00,,BKN055,0.00,VWS V14.01,2013-03-01 17:45:00,
2013-03-01 12:51:00,45.7,25.0,29.97,NNW,328,3.0,7.0,44,0.00,,BKN055,0.00,VWS V14.01,2013-03-01 17:51:00,
2013-03-01 12:57:00,45.8,25.1,29.97,North,9,2.0,3.0,44,0.00,,BKN055,0.00,VWS V14.01,2013-03-01 17:57:00,
2013-03-01 13:03:00,46.0,25.3,29.97,NW,323,0.0,5.0,44,0.00,,OVC065,0.00,VWS V14.01,2013-03-01 18:03:00,
2013-03-01 13:09:00,45.8,25.1,29.97,WNW,303,0.0,4.0,44,0.00,,OVC065,0.00,VWS V14.01,2013-03-01 18:09:00,
2013-03-01 13:15:00,45.7,25.6,29.97,West,275,1.0,6.0,45,0.00,,OVC065,0.00,VWS V14.01,2013-03-01 18:15:00,
2013-03-01 13:21:00,45.7,25.6,29.96,NW,307,2.0,11.0,45,0.00,,OVC065,0.00,VWS V14.01,2013-03-01 18:21:00,
2013-03-01 13:27:00,45.5,24.9,29.96,NW,314,3.0,8.0,44,0.00,,OVC065,0.00,VWS V14.01,2013-03-01 18:27:00,
2013-03-01 13:33:00,45.5,25.4,29.96,WNW,300,1.0,8.0,45,0.00,,OVC065,0.00,VWS V14.01,2013-03-01 18:33:00,
2013-03-01 13:39:00,46.0,26.9,29.96,SW,221,3.0,4.0,47,0.00,,OVC065,0.00,VWS V14.01,2013-03-01 18:39:00,
2013-03-01 13:45:00,45.8,25.1,29.96,SW,233,0.0,6.0,44,0.00,,OVC065,0.00,VWS V14.01,2013-03-01 18:45:00,
2013-03-01 13:51:00,46.2,26.0,29.95,NW,311,2.0,4.0,45,0.00,,OVC065,0.00,VWS V14.01,2013-03-01 18:51:00,
2013-03-01 13:57:00,46.5,26.3,29.95,West,280,1.0,2.0,45,0.00,,OVC065,0.00,VWS V14.01,2013-03-01 18:57:00,
2013-03-01 14:03:00,46.4,25.7,29.95,NW,312,1.0,9.0,44,0.00,,OVC065,0.00,VWS V14.01,2013-03-01 19:03:00,
2013-03-01 14:09:00,46.1,26.0,29.95,WNW,298,1.0,6.0,45,0.00,,OVC065,0.00,VWS V14.01,2013-03-01 19:09:00,
2013-03-01 14:15:00,45.7,25.0,29.95,NNW,336,2.0,6.0,44,0.00,,OVC065,0.00,VWS V14.01,2013-03-01 19:15:00,
2013-03-01 14:21:00,45.4,25.3,29.95,NW,310,4.0,6.0,45,0.00,,OVC065,0.00,VWS V14.01,2013-03-01 19:21:00,
2013-03-01 14:27:00,45.4,26.4,29.95,WNW,300,0.0,1.0,47,0.00,,OVC065,0.00,VWS V14.01,2013-03-01 19:27:00,
2013-03-01 14:33:00,45.4,26.4,29.95,West,267,6.0,10.0,47,0.00,,OVC065,0.00,VWS V14.01,2013-03-01 19:33:00,
2013-03-01 14:39:00,44.9,26.4,29.95,WNW,299,3.0,6.0,48,0.00,,OVC065,0.00,VWS V14.01,2013-03-01 19:39:00,
2013-03-01 14:45:00,44.8,26.3,29.95,West,259,5.0,7.0,48,0.00,,OVC065,0.00,VWS V14.01,2013-03-01 19:45:00,
2013-03-01 14:51:00,44.8,26.3,29.95,WNW,282,0.0,8.0,48,0.00,,OVC065,0.00,VWS V14.01,2013-03-01 19:51:00,
2013-03-01 14:57:00,44.6,26.1,29.95,WNW,299,3.0,6.0,48,0.00,,OVC065,0.00,VWS V14.01,2013-03-01 19:57:00,
2013-03-01 15:03:00,44.6,26.1,29.95,WNW,294,0.0,6.0,48,0.00,,OVC065,0.00,VWS V14.01,2013-03-01 20:03:00,
2013-03-01 15:09:00,44.5,26.0,29.95,NW,307,1.0,4.0,48,0.00,,OVC065,0.00,VWS V14.01,2013-03-01 20:09:00,
2013-03-01 15:15:00,44.3,25.9,29.95,NW,305,4.0,6.0,48,0.00,,OVC065,0.00,VWS V14.01,2013-03-01 20:15:00,
2013-03-01 15:22:00,44.5,26.5,29.95,North,351,0.0,3.0,49,0.00,,OVC065,0.00,VWS V14.01,2013-03-01 20:22:00,
2013-03-01 15:28:00,44.3,26.4,29.95,NW,306,1.0,5.0,49,0.00,,OVC065,0.00,VWS V14.01,2013-03-01 20:28:00,
2013-03-01 15:34:00,44.2,26.8,29.96,NW,319,2.0,6.0,50,0.00,,OVC065,0.00,VWS V14.01,2013-03-01 20:34:00,
2013-03-01 15:39:00,44.2,26.3,29.96,WNW,298,1.0,6.0,49,0.00,,OVC065,0.00,VWS V14.01,2013-03-01 20:39:00,
2013-03-01 15:46:00,44.2,26.3,29.97,NW,307,2.0,6.0,49,0.00,,OVC065,0.00,VWS V14.01,2013-03-01 20:46:00,
2013-03-01 15:52:00,44.1,26.2,29.97,NW,315,3.0,5.0,49,0.00,,OVC065,0.00,VWS V14.01,2013-03-01 20:52:00,
2013-03-01 15:58:00,44.1,26.2,29.97,WNW,286,1.0,5.0,49,0.00,,OVC065,0.00,VWS V14.01,2013-03-01 20:58:00,
2013-03-01 16:04:00,43.9,26.0,29.96,NW,316,2.0,5.0,49,0.00,,OVC065,0.00,VWS V14.01,2013-03-01 21:04:00,
2013-03-01 16:09:00,43.8,26.9,29.96,WNW,290,1.0,5.0,51,0.00,,OVC065,0.00,VWS V14.01,2013-03-01 21:09:00,
2013-03-01 16:16:00,43.8,26.9,29.97,NW,313,1.0,4.0,51,0.00,,OVC065,0.00,VWS V14.01,2013-03-01 21:16:00,
2013-03-01 16:22:00,43.8,26.9,29.97,NNW,345,0.0,1.0,51,0.00,,OVC065,0.00,VWS V14.01,2013-03-01 21:22:00,
2013-03-01 16:28:00,43.8,27.3,29.97,NNW,345,0.0,2.0,52,0.00,,OVC065,0.00,VWS V14.01,2013-03-01 21:28:00,
2013-03-01 16:34:00,43.6,27.1,29.97,WNW,293,0.0,3.0,52,0.00,,OVC065,0.00,VWS V14.01,2013-03-01 21:34:00,
2013-03-01 16:39:00,43.5,26.6,29.97,NW,317,1.0,5.0,51,0.00,,OVC065,0.00,VWS V14.01,2013-03-01 21:39:00,
2013-03-01 16:44:00,43.5,27.1,29.97,WNW,296,0.0,4.0,52,0.00,,OVC065,0.00,VWS V14.01,2013-03-01 21:44:00,
2013-03-01 16:49:00,43.3,26.9,29.97,WNW,295,1.0,4.0,52,0.00,,OVC065,0.00,VWS V14.01,2013-03-01 21:49:00,
2013-03-01 16:55:00,43.3,27.3,29.97,WNW,285,2.0,3.0,53,0.00,,OVC065,0.00,VWS V14.01,2013-03-01 21:55:00,
2013-03-01 17:01:00,43.2,27.2,29.97,NNW,337,1.0,2.0,53,0.00,,OVC055,0.00,VWS V14.01,2013-03-01 22:01:00,
2013-03-01 17:07:00,43.1,27.6,29.97,NNW,337,0.0,2.0,54,0.00,,OVC055,0.00,VWS V14.01,2013-03-01 22:07:00,
2013-03-01 17:13:00,43.1,28.0,29.97,NNW,337,0.0,3.0,55,0.00,,OVC055,0.00,VWS V14.01,2013-03-01 22:13:00,
2013-03-01 17:19:00,42.9,27.4,29.97,WNW,284,1.0,3.0,54,0.00,,OVC055,0.00,VWS V14.01,2013-03-01 22:19:00,
2013-03-01 17:25:00,42.9,27.4,29.97,WNW,285,0.0,3.0,54,0.00,,OVC055,0.00,VWS V14.01,2013-03-01 22:25:00,
2013-03-01 17:31:00,42.8,27.3,29.98,WNW,285,0.0,0.0,54,0.00,,OVC055,0.00,VWS V14.01,2013-03-01 22:31:00,
2013-03-01 17:37:00,42.6,27.6,29.98,WNW,286,0.0,1.0,55,0.00,,OVC055,0.00,VWS V14.01,2013-03-01 22:37:00,
2013-03-01 17:43:00,42.6,27.6,29.98,WNW,286,0.0,0.0,55,0.00,,OVC055,0.00,VWS V14.01,2013-03-01 22:43:00,
2013-03-01 17:49:00,42.5,27.5,29.99,WNW,286,0.0,1.0,55,0.00,,OVC055,0.00,VWS V14.01,2013-03-01 22:49:00,
2013-03-01 17:55:00,42.3,28.2,29.99,WNW,286,0.0,0.0,57,0.00,,OVC055,0.00,VWS V14.01,2013-03-01 22:55:00,
2013-03-01 18:01:00,42.3,28.2,29.99,WNW,286,0.0,0.0,57,0.00,,OVC055,0.00,VWS V14.01,2013-03-01 23:01:00,
2013-03-01 18:07:00,42.1,28.4,29.99,WNW,286,0.0,0.0,58,0.00,,OVC055,0.00,VWS V14.01,2013-03-01 23:07:00,
2013-03-01 18:13:00,41.9,28.6,29.99,WNW,286,0.0,0.0,59,0.00,,OVC055,0.00,VWS V14.01,2013-03-01 23:13:00,
2013-03-01 18:19:00,41.8,29.0,30.00,WNW,286,0.0,0.0,60,0.00,,OVC055,0.00,VWS V14.01,2013-03-01 23:19:00,
2013-03-01 18:25:00,41.6,29.2,30.00,WNW,286,0.0,0.0,61,0.00,,OVC055,0.00,VWS V14.01,2013-03-01 23:25:00,
2013-03-01 18:31:00,41.5,28.7,30.00,WNW,286,0.0,0.0,60,0.00,,OVC055,0.00,VWS V14.01,2013-03-01 23:31:00,
2013-03-01 18:37:00,41.3,29.3,30.00,WNW,286,0.0,0.0,62,0.00,,OVC055,0.00,VWS V14.01,2013-03-01 23:37:00,
2013-03-01 18:43:00,41.3,28.9,30.00,WNW,286,0.0,0.0,61,0.00,,OVC055,0.00,VWS V14.01,2013-03-01 23:43:00,
2013-03-01 18:49:00,41.2,29.2,30.01,WNW,286,0.0,0.0,62,0.00,,OVC055,0.00,VWS V14.01,2013-03-01 23:49:00,
2013-03-01 18:56:00,41.1,29.1,30.01,WNW,286,0.0,0.0,62,0.00,,OVC055,0.00,VWS V14.01,2013-03-01 23:56:00,
2013-03-01 19:02:00,41.1,29.5,30.01,WNW,286,0.0,0.0,63,0.00,,OVC055,0.00,VWS V14.01,2013-03-02 00:02:00,
2013-03-01 19:08:00,40.9,29.7,30.01,WNW,286,0.0,0.0,64,0.00,,OVC055,0.00,VWS V14.01,2013-03-02 00:08:00,
2013-03-01 19:14:00,40.8,29.6,30.02,WNW,286,0.0,0.0,64,0.00,,OVC055,0.00,VWS V14.01,2013-03-02 00:14:00,
2013-03-01 19:19:00,40.8,30.3,30.02,WNW,286,0.0,0.0,66,0.00,,OVC055,0.00,VWS V14.01,2013-03-02 00:19:00,
2013-03-01 19:24:00,40.6,30.5,30.02,WNW,286,0.0,0.0,67,0.00,,OVC055,0.00,VWS V14.01,2013-03-02 00:24:00,
2013-03-01 19:30:00,40.5,29.7,30.02,WNW,286,0.0,0.0,65,0.00,,OVC055,0.00,VWS V14.01,2013-03-02 00:30:00,
2013-03-01 19:37:00,40.5,30.0,30.02,WNW,286,0.0,0.0,66,0.00,,OVC055,0.00,VWS V14.01,2013-03-02 00:37:00,
2013-03-01 19:43:00,40.3,29.9,30.02,WNW,286,0.0,0.0,66,0.00,,OVC055,0.00,VWS V14.01,2013-03-02 00:43:00,
2013-03-01 19:49:00,40.3,29.9,30.02,WNW,286,0.0,0.0,66,0.00,,OVC055,0.00,VWS V14.01,2013-03-02 00:49:00,
2013-03-01 19:55:00,40.2,30.1,30.02,WNW,286,0.0,0.0,67,0.00,,OVC055,0.00,VWS V14.01,2013-03-02 00:55:00,
2013-03-01 20:01:00,40.2,30.5,30.02,WNW,286,0.0,0.0,68,0.00,,OVC050,0.00,VWS V14.01,2013-03-02 01:01:00,
2013-03-01 20:07:00,40.1,29.7,30.02,WNW,286,0.0,0.0,66,0.00,,OVC050,0.00,VWS V14.01,2013-03-02 01:07:00,
2013-03-01 20:13:00,40.1,30.0,30.02,WNW,286,0.0,0.0,67,0.00,,OVC050,0.00,VWS V14.01,2013-03-02 01:13:00,
2013-03-01 20:19:00,39.9,29.9,30.02,WNW,286,0.0,0.0,67,0.00,,OVC050,0.00,VWS V14.01,2013-03-02 01:19:00,
2013-03-01 20:25:00,39.9,30.6,30.02,WNW,286,0.0,0.0,69,0.00,,OVC050,0.00,VWS V14.01,2013-03-02 01:25:00,
2013-03-01 20:31:00,39.8,30.1,30.02,WNW,286,0.0,0.0,68,0.00,,OVC050,0.00,VWS V14.01,2013-03-02 01:31:00,
2013-03-01 20:37:00,39.8,29.8,30.02,WNW,286,0.0,0.0,67,0.00,,OVC050,0.00,VWS V14.01,2013-03-02 01:37:00,
2013-03-01 20:43:00,39.8,29.8,30.02,WNW,286,0.0,0.0,67,0.00,,OVC050,0.00,VWS V14.01,2013-03-02 01:43:00,
2013-03-01 20:49:00,39.8,29.8,30.03,WNW,286,0.0,0.0,67,0.00,,OVC050,0.00,VWS V14.01,2013-03-02 01:49:00,
2013-03-01 20:55:00,39.8,29.4,30.03,WNW,286,1.0,1.0,66,0.00,,OVC050,0.00,VWS V14.01,2013-03-02 01:55:00,
2013-03-01 21:01:00,39.9,29.5,30.02,WNW,286,0.0,0.0,66,0.00,,OVC050,0.00,VWS V14.01,2013-03-02 02:01:00,
2013-03-01 21:07:00,39.9,29.1,30.02,WNW,286,0.0,0.0,65,0.00,,OVC050,0.00,VWS V14.01,2013-03-02 02:07:00,
2013-03-01 21:13:00,39.9,29.1,30.02,WNW,286,0.0,0.0,65,0.00,,OVC050,0.00,VWS V14.01,2013-03-02 02:13:00,
2013-03-01 21:19:00,39.8,29.0,30.02,WNW,286,0.0,1.0,65,0.00,,OVC050,0.00,VWS V14.01,2013-03-02 02:19:00,
2013-03-01 21:25:00,39.8,29.4,30.02,WNW,286,0.0,0.0,66,0.00,,OVC050,0.00,VWS V14.01,2013-03-02 02:25:00,
2013-03-01 21:31:00,39.8,29.4,30.03,WNW,286,0.0,0.0,66,0.00,,OVC050,0.00,VWS V14.01,2013-03-02 02:31:00,
2013-03-01 21:37:00,39.8,29.0,30.03,WNW,286,0.0,1.0,65,0.00,,OVC050,0.00,VWS V14.01,2013-03-02 02:37:00,
2013-03-01 21:43:00,39.8,29.0,30.03,WNW,286,0.0,0.0,65,0.00,,OVC050,0.00,VWS V14.01,2013-03-02 02:43:00,
2013-03-01 21:49:00,39.6,29.6,30.03,WNW,286,0.0,0.0,67,0.00,,OVC050,0.00,VWS V14.01,2013-03-02 02:49:00,
2013-03-01 21:55:00,39.5,28.7,30.03,WNW,286,0.0,1.0,65,0.00,,OVC050,0.00,VWS V14.01,2013-03-02 02:55:00,
2013-03-01 22:01:00,39.6,29.2,30.03,WNW,286,0.0,0.0,66,0.00,,OVC060,0.00,VWS V14.01,2013-03-02 03:01:00,
2013-03-01 22:07:00,39.6,28.8,30.03,WNW,286,0.0,1.0,65,0.00,,OVC060,0.00,VWS V14.01,2013-03-02 03:07:00,
2013-03-01 22:13:00,39.5,28.7,30.03,NW,322,0.0,2.0,65,0.00,,OVC060,0.00,VWS V14.01,2013-03-02 03:13:00,
2013-03-01 22:19:00,39.5,27.2,30.03,North,352,0.0,4.0,61,0.00,,OVC060,0.00,VWS V14.01,2013-03-02 03:19:00,
2013-03-01 22:25:00,39.5,26.8,30.03,NW,304,0.0,3.0,60,0.00,,OVC060,0.00,VWS V14.01,2013-03-02 03:25:00,
2013-03-01 22:31:00,39.5,26.8,30.03,NW,314,0.0,0.0,60,0.00,,OVC060,0.00,VWS V14.01,2013-03-02 03:31:00,
2013-03-01 22:37:00,39.3,26.2,30.03,NW,314,0.0,3.0,59,0.00,,OVC060,0.00,VWS V14.01,2013-03-02 03:37:00,
2013-03-01 22:43:00,39.3,25.8,30.03,NW,314,0.0,2.0,58,0.00,,OVC060,0.00,VWS V14.01,2013-03-02 03:43:00,
2013-03-01 22:49:00,39.3,24.9,30.03,NW,322,0.0,3.0,56,0.00,,OVC060,0.00,VWS V14.01,2013-03-02 03:49:00,
2013-03-01 22:55:00,39.3,24.1,30.03,NW,322,2.0,2.0,54,0.00,,OVC060,0.00,VWS V14.01,2013-03-02 03:55:00,
2013-03-01 23:01:00,39.3,24.1,30.02,NNW,336,0.0,3.0,54,0.00,,BKN060,0.00,VWS V14.01,2013-03-02 04:01:00,
2013-03-01 23:08:00,39.2,24.8,30.02,NNW,336,0.0,3.0,56,0.00,,BKN060,0.00,VWS V14.01,2013-03-02 04:08:00,
2013-03-01 23:14:00,39.2,24.4,30.02,NNW,336,0.0,1.0,55,0.00,,BKN060,0.00,VWS V14.01,2013-03-02 04:14:00,
2013-03-01 23:19:00,39.1,24.3,30.02,NNW,336,0.0,1.0,55,0.00,,BKN060,0.00,VWS V14.01,2013-03-02 04:19:00,
2013-03-01 23:26:00,38.9,25.0,30.02,NNW,337,0.0,0.0,57,0.00,,BKN060,0.00,VWS V14.01,2013-03-02 04:26:00,
2013-03-01 23:32:00,38.8,24.9,30.02,NNW,336,0.0,0.0,57,0.00,,BKN060,0.00,VWS V14.01,2013-03-02 04:32:00,
2013-03-01 23:38:00,38.6,25.1,30.02,NNW,336,0.0,0.0,58,0.00,,BKN060,0.00,VWS V14.01,2013-03-02 04:38:00,
2013-03-01 23:44:00,38.6,24.7,30.02,NNW,336,0.0,1.0,57,0.00,,BKN060,0.00,VWS V14.01,2013-03-02 04:44:00,
2013-03-01 23:49:00,38.5,25.4,30.02,NNW,336,0.0,1.0,59,0.00,,BKN060,0.00,VWS V14.01,2013-03-02 04:49:00,
2013-03-01 23:56:00,38.3,25.2,30.02,NNW,336,0.0,1.0,59,0.00,,BKN060,0.00,VWS V14.01,2013-03-02 04:56:00,